EW8803 Weather Reports


time (UTC)temp
C
wind
direction
speed
KPH
gust
KPH
rain 1hr
cm
rain 24hr
cm
rain mn
cm
humidity
%
barometer
mb
20260503072531 15 273 6.4 14.5 0.00 0.05 0.05 85 1014.6
20260503072024 15 233 6.4 12.9 0.00 0.05 0.05 88 1014.6
20260503071535 15 263 8.0 12.9 0.00 0.05 0.05 88 1014.6
20260503071057 15 243 4.8 11.3 0.00 0.05 0.05 89 1014.6
20260503070625 14 252 6.4 11.3 0.00 0.05 0.05 89 1012.1
20260503054536 14 276 6.4 12.9 0.03 0.03 0.03 89 1014.3
20260503054030 14 270 6.4 12.9 0.03 0.03 0.03 88 1014.4
20260503053616 14 267 8.0 12.9 0.00 0.00 0.00 87 1011.9
20260503053033 14 234 3.2 9.7 0.00 0.00 0.00 86 1014.4
20260503052522 14 223 6.4 9.7 0.00 0.00 0.00 86 1014.3
20260503052031 14 229 4.8 9.7 0.00 0.00 0.00 85 1014.3
20260503051539 15 243 6.4 9.7 0.00 0.00 0.00 85 1014.3
20260503050527 15 248 6.4 12.9 0.00 0.00 0.00 85 1014.3
20260503050045 15 270 6.4 9.7 0.00 0.00 0.00 84 1014.3
20260503045538 15 278 4.8 9.7 0.00 0.00 0.00 84 1014.2
20260503045035 15 283 6.4 12.9 0.00 0.00 0.00 84 1014.1
20260503044517 15 293 6.4 12.9 0.00 0.00 0.00 84 1014.0
20260503044031 15 293 6.4 12.9 0.00 0.00 0.00 83 1014.0
20260503043528 15 273 4.8 9.7 0.00 0.00 0.00 83 1013.9
20260503043034 15 252 8.0 12.9 0.00 0.00 0.00 83 1014.0
20260503042517 15 260 6.4 14.5 0.00 0.00 0.00 82 1014.1
20260503042031 15 264 6.4 14.5 0.00 0.00 0.00 82 1014.1
20260503041625 15 258 4.8 12.9 0.00 0.00 0.00 81 1011.7
20260503041023 15 301 8.0 14.5 0.00 0.00 0.00 81 1014.2
20260503035602 15 280 6.4 14.5 0.00 0.00 0.00 79 1014.2
20260503035027 15 252 9.7 16.1 0.00 0.00 0.00 79 1014.4
20260503034523 15 273 9.7 16.1 0.00 0.00 0.00 78 1014.4
20260503034027 15 245 8.0 14.5 0.00 0.00 0.00 77 1014.4
20260503033545 15 264 9.7 12.9 0.00 0.00 0.00 77 1014.4
20260503033037 15 255 6.4 9.7 0.00 0.00 0.00 77 1014.4
20260503032542 15 269 6.4 12.9 0.00 0.00 0.00 76 1014.4
20260503032033 15 248 8.0 12.9 0.00 0.00 0.00 76 1014.4
20260503031535 15 253 4.8 9.7 0.00 0.00 0.00 76 1014.5
20260503031039 15 271 4.8 9.7 0.00 0.00 0.00 75 1014.5
20260503030526 15 264 4.8 6.4 0.00 0.00 0.00 75 1014.5
20260503030106 15 236 4.8 6.4 0.00 0.00 0.00 75 1014.4
20260503025029 15 264 4.8 8.0 0.00 0.00 0.00 75 1014.5
20260503024533 15 245 1.6 8.0 0.00 0.00 0.00 75 1014.5
20260503024047 15 214 1.6 8.0 0.00 0.00 0.00 75 1014.7
20260503023542 15 248 4.8 8.0 0.00 0.00 0.00 75 1014.7
20260503023038 15 250 6.4 8.0 0.00 0.00 0.00 75 1014.7
20260503022517 15 217 3.2 6.4 0.00 0.00 0.00 75 1014.7
20260503022017 15 245 3.2 6.4 0.00 0.00 0.00 75 1014.6
20260503021522 15 252 4.8 8.0 0.00 0.00 0.00 75 1014.7
20260503021034 15 248 4.8 8.0 0.00 0.00 0.00 75 1014.6
20260503020535 15 270 6.4 9.7 0.00 0.00 0.00 74 1014.6
20260503020049 15 256 6.4 11.3 0.00 0.00 0.00 74 1014.6
20260503015609 16 231 6.4 11.3 0.00 0.00 0.00 73 1012.1
20260503015031 16 226 0.0 8.0 0.00 0.00 0.00 72 1014.6
20260503014525 16 237 1.6 9.7 0.00 0.00 0.00 72 1014.6
20260503014029 16 249 6.4 9.7 0.00 0.00 0.00 72 1014.5
20260503013525 16 233 3.2 9.7 0.00 0.00 0.00 72 1014.6
20260503013024 16 214 3.2 8.0 0.00 0.00 0.00 71 1014.7
20260503012529 16 243 6.4 8.0 0.00 0.00 0.00 70 1014.7
20260503012019 16 215 3.2 8.0 0.00 0.00 0.00 71 1014.6
20260503011534 16 254 3.2 8.0 0.00 0.00 0.00 71 1014.7
20260503011053 16 214 3.2 4.8 0.00 0.00 0.00 72 1014.7
20260503010607 16 221 0.0 6.4 0.00 0.00 0.00 72 1012.3
20260503005526 16 241 3.2 4.8 0.00 0.00 0.00 73 1014.9
20260503005057 16 238 1.6 4.8 0.00 0.00 0.00 74 1015.0
20260503004539 16 229 0.0 4.8 0.00 0.00 0.00 75 1015.1
20260503004019 16 241 0.0 4.8 0.00 0.00 0.00 74 1015.2
20260503003516 16 223 3.2 6.4 0.00 0.00 0.00 75 1015.2
20260503003018 16 233 4.8 6.4 0.00 0.00 0.00 74 1015.3
20260503002536 16 218 0.0 4.8 0.00 0.00 0.00 75 1015.3
20260503002029 16 217 0.0 3.2 0.00 0.00 0.00 75 1015.4
20260503001532 16 244 1.6 4.8 0.00 0.00 0.00 75 1015.3
20260503001023 16 281 3.2 4.8 0.00 0.00 0.00 75 1015.4
20260503000530 16 264 0.0 0.0 0.00 0.00 0.00 76 1015.3
20260503000045 16 268 0.0 1.6 0.00 0.00 0.00 75 1015.3
20260502235517 16 284 0.0 3.2 0.00 0.00 0.00 76 1015.4
20260502235021 16 285 3.2 3.2 0.00 0.00 0.00 75 1015.4
20260502234527 16 287 0.0 1.6 0.00 0.00 0.00 76 1015.3
20260502234019 16 245 0.0 6.4 0.00 0.00 0.00 76 1015.5
20260502233549 16 240 4.8 6.4 0.00 0.00 0.00 76 1015.5
20260502233052 16 201 0.0 3.2 0.00 0.00 0.00 76 1015.4
20260502232024 16 228 3.2 4.8 0.00 0.00 0.00 76 1015.6
20260502231536 16 237 3.2 4.8 0.00 0.00 0.00 76 1015.5
20260502231026 16 281 3.2 4.8 0.00 0.00 0.00 76 1015.5
20260502230527 16 262 0.0 1.6 0.00 0.00 0.00 76 1015.5
20260502230041 16 239 0.0 1.6 0.00 0.00 0.00 77 1015.5
20260502225608 16 167 0.0 0.0 0.00 0.00 0.00 77 1013.1
20260502225042 16 166 0.0 0.0 0.00 0.00 0.00 77 1015.6
20260502224532 16 166 0.0 0.0 0.00 0.00 0.00 77 1015.6
20260502224033 16 179 0.0 0.0 0.00 0.00 0.00 77 1015.6
20260502223541 16 169 0.0 0.0 0.00 0.00 0.00 77 1015.6
20260502223037 16 189 0.0 1.6 0.00 0.00 0.00 76 1015.5
20260502222527 16 165 0.0 1.6 0.00 0.00 0.00 76 1015.6
20260502222022 16 176 0.0 0.0 0.00 0.00 0.00 75 1015.6
20260502221527 16 270 0.0 3.2 0.00 0.00 0.00 75 1015.5
20260502221024 16 213 0.0 3.2 0.00 0.00 0.00 75 1015.6
20260502220527 17 195 1.6 3.2 0.00 0.00 0.00 74 1015.6
20260502220049 17 179 0.0 3.2 0.00 0.00 0.00 74 1015.6
20260502215542 17 181 3.2 6.4 0.00 0.00 0.00 73 1015.6
20260502215019 17 205 1.6 8.0 0.00 0.00 0.00 73 1015.8
20260502214524 17 257 6.4 8.0 0.00 0.00 0.00 73 1015.8
20260502213516 17 212 4.8 8.0 0.00 0.00 0.00 72 1015.9
20260502213130 17 214 3.2 4.8 0.00 0.00 0.00 72 1013.4
20260502212617 17 158 1.6 4.8 0.00 0.00 0.00 71 1013.3
20260502212047 17 237 0.0 9.7 0.00 0.00 0.00 70 1015.8
20260502211522 17 219 3.2 9.7 0.00 0.00 0.00 70 1015.8
20260502211057 17 200 4.8 8.0 0.00 0.00 0.00 69 1015.8
20260502210040 18 267 4.8 8.0 0.00 0.00 0.00 68 1015.7
20260502205619 18 241 3.2 9.7 0.00 0.00 0.00 68 1013.1
20260502205126 18 248 1.6 9.7 0.00 0.00 0.00 67 1013.1
20260502204524 18 248 3.2 9.7 0.00 0.00 0.00 67 1015.4
20260502204016 18 266 4.8 9.7 0.00 0.00 0.00 67 1015.5
20260502203518 18 264 6.4 11.3 0.00 0.00 0.00 66 1015.4
20260502202517 18 270 8.0 9.7 0.00 0.00 0.00 65 1015.3
20260502202040 18 262 4.8 9.7 0.00 0.00 0.00 65 1015.3
20260502201534 18 259 4.8 8.0 0.00 0.00 0.00 65 1015.3
20260502201056 18 277 1.6 11.3 0.00 0.00 0.00 64 1015.2
20260502200529 18 256 4.8 11.3 0.00 0.00 0.00 64 1015.1
20260502200051 18 248 8.0 12.9 0.00 0.00 0.00 64 1015.2
20260502195535 18 258 4.8 12.9 0.00 0.00 0.00 64 1015.2
20260502195110 18 262 4.8 11.3 0.00 0.00 0.00 64 1012.7
20260502194516 18 259 8.0 11.3 0.00 0.00 0.00 64 1015.1
20260502194127 18 239 6.4 12.9 0.00 0.00 0.00 63 1012.6
20260502193519 18 243 8.0 14.5 0.00 0.00 0.00 62 1015.1
20260502193036 18 283 9.7 14.5 0.00 0.00 0.00 62 1015.1
20260502192537 18 286 4.8 12.9 0.00 0.00 0.00 61 1015.1
20260502191531 19 276 8.0 12.9 0.00 0.00 0.00 60 1015.1
20260502191038 19 288 8.0 12.9 0.00 0.00 0.00 60 1015.0
20260502190526 19 248 9.7 14.5 0.00 0.00 0.00 59 1015.1
20260502190052 19 271 9.7 14.5 0.00 0.00 0.00 58 1015.0
20260502185532 19 243 12.9 16.1 0.00 0.00 0.00 58 1015.0
20260502185027 20 259 11.3 16.1 0.00 0.00 0.00 57 1015.1
20260502184529 20 250 9.7 16.1 0.00 0.00 0.00 56 1015.1
20260502184045 20 229 6.4 14.5 0.00 0.00 0.00 55 1015.0
20260502183535 20 266 8.0 17.7 0.00 0.00 0.00 55 1015.0
20260502183031 20 248 8.0 17.7 0.00 0.00 0.00 54 1015.0
20260502182543 20 252 6.4 12.9 0.00 0.00 0.00 54 1015.0
20260502182042 20 267 9.7 12.9 0.00 0.00 0.00 53 1014.8
20260502181521 20 278 4.8 16.1 0.00 0.00 0.00 54 1014.8
20260502181035 20 243 11.3 17.7 0.00 0.00 0.00 53 1014.9
20260502180516 20 241 14.5 17.7 0.00 0.00 0.00 52 1014.9
20260502170516 21 231 9.7 24.1 0.00 0.00 0.00 50 1014.9
20260502170104 21 221 12.9 24.1 0.00 0.00 0.00 50 1014.9
20260502164022 21 244 11.3 24.1 0.00 0.00 0.00 46 1014.9
20260502163532 21 256 11.3 22.5 0.00 0.00 0.00 45 1015.0
20260502163057 21 266 9.7 27.4 0.00 0.00 0.00 46 1015.0
20260502162524 21 244 14.5 27.4 0.00 0.00 0.00 47 1015.0
20260502162027 21 223 16.1 25.7 0.00 0.00 0.00 47 1015.1
20260502161525 21 203 14.5 29.0 0.00 0.00 0.00 46 1015.2
20260502161022 22 262 16.1 29.0 0.00 0.00 0.00 44 1015.1
20260502160524 22 222 9.7 22.5 0.00 0.00 0.00 45 1015.1
20260502152035 21 240 16.1 29.0 0.00 0.00 0.00 53 1015.4
20260502151605 21 205 19.3 27.4 0.00 0.00 0.00 52 1015.6
20260502151045 21 208 17.7 27.4 0.00 0.00 0.00 54 1015.6
20260502150522 21 215 16.1 27.4 0.00 0.00 0.00 55 1015.6
20260502130525 20 166 3.2 12.9 0.00 0.00 0.00 61 1016.7
20260502130132 20 203 1.6 20.9 0.00 0.00 0.00 61 1014.3
20260502123545 20 181 9.7 17.7 0.00 0.00 0.00 61 1016.9
20260502123016 20 224 8.0 11.3 0.00 0.00 0.00 62 1017.0
20260502122521 20 231 4.8 12.9 0.00 0.00 0.00 63 1017.1
20260502122038 20 266 4.8 12.9 0.00 0.00 0.00 62 1017.0
20260502121524 21 256 3.2 9.7 0.00 0.00 0.00 61 1017.2
20260502121105 21 309 1.6 8.0 0.00 0.00 0.00 62 1014.7
20260502120549 20 192 4.8 11.3 0.00 0.00 0.00 62 1017.3
20260502120138 20 167 8.0 11.3 0.00 0.00 0.00 62 1014.8
20260502115531 20 207 3.2 11.3 0.00 0.00 0.00 63 1017.2
20260502115107 20 139 6.4 11.3 0.00 0.00 0.00 63 1014.8
20260502114544 20 266 4.8 11.3 0.00 0.00 0.00 64 1017.4
20260502114029 20 238 4.8 14.5 0.00 0.00 0.00 63 1017.5
20260502113024 20 277 1.6 9.7 0.00 0.00 0.00 63 1017.5
20260502112552 19 245 6.4 9.7 0.00 0.00 0.00 63 1017.5
20260502112055 19 176 0.0 6.4 0.00 0.00 0.00 65 1017.8
20260502111557 19 244 3.2 6.4 0.00 0.00 0.00 64 1018.0
20260502111033 19 94 3.2 8.0 0.00 0.00 0.00 65 1018.0
20260502110517 18 101 3.2 8.0 0.00 0.00 0.00 65 1018.2
20260502110049 18 216 3.2 6.4 0.00 0.00 0.00 64 1018.3
20260502105605 19 257 1.6 6.4 0.00 0.00 0.00 63 1015.8
20260502105031 19 250 0.0 6.4 0.00 0.00 0.00 63 1018.4
20260502104523 20 269 1.6 4.8 0.00 0.00 0.00 62 1018.3
20260502104025 19 163 0.0 4.8 0.00 0.00 0.00 63 1018.3
20260502103527 19 208 3.2 4.8 0.00 0.00 0.00 63 1018.2
20260502103023 18 221 0.0 8.0 0.00 0.00 0.00 66 1018.3
20260502102526 18 266 0.0 11.3 0.00 0.00 0.00 65 1018.4
20260502102016 18 236 0.0 6.4 0.00 0.00 0.00 65 1018.6
20260502101634 18 236 3.2 6.4 0.00 0.00 0.00 65 1016.2
20260502101117 18 246 4.8 6.4 0.00 0.00 0.00 64 1016.2
20260502100530 19 295 0.0 4.8 0.00 0.00 0.00 63 1018.5
20260502091530 17 315 6.4 9.7 0.00 0.00 0.00 66 1018.7
20260502090532 17 292 4.8 6.4 0.00 0.00 0.00 66 1018.7